Decatur, IL

4:07 PM CDT on June 24, 2018 (GMT -0500)
Decatur

Weather History for KDEC - September, 2017

Change the Weather History Date:

Wednesday, September 13, 2017

  Actual Average Record
Temperature  
Mean Temperature 64 °F 68 °F  
Max Temperature 70 °F 80 °F 93 °F (2005)
Min Temperature 57 °F 56 °F 42 °F (2014)
Degree Days  
Heating Degree Days 1 1  
Month to date heating degree days 31 7  
Since 1 July heating degree days 32 13  
Cooling Degree Days 0 4  
Month to date cooling degree days 17 70  
Year to date cooling degree days 923 988  
Growing Degree Days 14 (Base 50)    
Moisture  
Dew Point 60 °F    
Average Humidity 87    
Maximum Humidity 100    
Minimum Humidity 73    
Precipitation  
Precipitation 0.08 in 0.11 in 0.08 in (2017)
Month to date precipitation 0.49 1.60  
Year to date precipitation 26.66 27.91  
Sea Level Pressure  
Sea Level Pressure 29.76 in    
Wind  
Wind Speed 3 mph (NE)    
Max Wind Speed 9 mph    
Max Gust Speed 12 mph    
Visibility 9 miles    
Events Rain    
T = Trace of Precipitation, MM = Missing Value Source: NWS Daily Summary

Daily Weather History Graph

Daily Weather History Graph

Search for Another Location

Airport or City:

Astronomy

Sep. 13, 2017 Rise Set
Actual Time 6:34 AM CDT 7:06 PM CDT
Civil Twilight 6:07 AM CDT 7:34 PM CDT
Nautical Twilight 5:35 AM CDT 8:05 PM CDT
Astronomical Twilight 5:02 AM CDT 8:38 PM CDT
Moon No Moon Rise 2:22 PM CDT (9/13)
Length of Visible Light 13h 26m
Length of Day
12h 32m
Last Quarter, 45% of the Moon is Illuminated
Sep 13
Last Quarter
Sep 20
New
Sep 27
First Quarter
Oct 5
Full
Oct 12
Last Quarter

Hourly Weather History & Observations

Time (CDT) Temp. Dew Point Humidity Pressure Visibility Wind Dir Wind Speed Gust Speed Precip Events Conditions
12:54 AM 64.9 °F 57.9 °F 78% 29.76 in 10.0 mi East 6.9 mph - N/A   Overcast
1:08 AM 64.0 °F 57.9 °F 80% 29.76 in 10.0 mi North 5.8 mph - N/A   Overcast
1:54 AM 64.0 °F 57.9 °F 80% 29.74 in 10.0 mi NNE 5.8 mph - N/A   Overcast
2:54 AM 64.0 °F 57.9 °F 80% 29.73 in 10.0 mi NNE 5.8 mph - N/A   Overcast
3:44 AM 63.0 °F 57.9 °F 84% 29.73 in 10.0 mi North 9.2 mph - N/A   Mostly Cloudy
3:54 AM 63.0 °F 57.0 °F 81% 29.73 in 10.0 mi NNE 6.9 mph - N/A   Mostly Cloudy
4:54 AM 62.1 °F 57.9 °F 86% 29.73 in 10.0 mi East 5.8 mph - N/A   Overcast
5:54 AM 60.1 °F 57.0 °F 90% 29.73 in 10.0 mi East 3.5 mph - N/A   Partly Cloudy
6:34 AM 59.0 °F 55.9 °F 90% 29.75 in 10.0 mi NNE 4.6 mph - N/A   Mostly Cloudy
6:54 AM 60.1 °F 57.9 °F 93% 29.75 in 10.0 mi NNE 4.6 mph - N/A   Overcast
7:54 AM 62.1 °F 59.0 °F 90% 29.76 in 10.0 mi NNE 4.6 mph - N/A   Overcast
8:22 AM 63.0 °F 59.0 °F 87% 29.77 in 10.0 mi NE 4.6 mph - N/A   Overcast
8:54 AM 62.1 °F 60.1 °F 93% 29.77 in 3.0 mi NNE 5.8 mph - 0.06 in Rain Heavy Rain
9:10 AM 62.1 °F 60.1 °F 93% 29.77 in 3.0 mi NE 4.6 mph - 0.02 in Rain Rain
9:18 AM 62.1 °F 61.0 °F 96% 29.77 in 7.0 mi ENE 4.6 mph - 0.02 in Rain Light Rain
9:51 AM 62.6 °F 60.8 °F 94% 29.77 in 10.0 mi East 3.5 mph - 0.02 in   Overcast
9:54 AM 63.0 °F 61.0 °F 93% 29.76 in 10.0 mi East 3.5 mph - 0.02 in   Overcast
10:06 AM 63.0 °F 62.1 °F 97% 29.77 in 9.0 mi Calm Calm - N/A   Overcast
10:15 AM 63.0 °F 61.0 °F 93% 29.77 in 6.0 mi Calm Calm - N/A   Overcast
10:44 AM 64.0 °F 61.0 °F 90% 29.78 in 9.0 mi Calm Calm - N/A   Overcast
10:54 AM 64.0 °F 61.0 °F 90% 29.77 in 4.0 mi Variable 5.8 mph - N/A   Overcast
11:06 AM 64.0 °F 62.1 °F 93% 29.77 in 2.5 mi South 4.6 mph - N/A   Overcast
11:25 AM 64.0 °F 62.1 °F 93% 29.77 in 4.0 mi SSE 5.8 mph - N/A   Overcast
11:54 AM 64.9 °F 62.1 °F 90% 29.76 in 10.0 mi South 6.9 mph - N/A   Overcast
12:37 PM 66.0 °F 61.0 °F 84% 29.76 in 10.0 mi SSE 5.8 mph - N/A   Overcast
12:54 PM 66.0 °F 61.0 °F 84% 29.75 in 10.0 mi SSE 5.8 mph - N/A   Overcast
1:54 PM 69.1 °F 62.1 °F 78% 29.74 in 10.0 mi NW 5.8 mph - N/A   Overcast
2:11 PM 69.1 °F 61.0 °F 75% 29.74 in 10.0 mi NW 6.9 mph - N/A   Overcast
2:54 PM 68.0 °F 61.0 °F 78% 29.74 in 10.0 mi Variable 5.8 mph - N/A   Overcast
3:08 PM 69.1 °F 62.1 °F 78% 29.74 in 10.0 mi Variable 3.5 mph - N/A   Overcast
3:21 PM 69.1 °F 62.1 °F 78% 29.74 in 10.0 mi NW 4.6 mph - N/A   Overcast
3:54 PM 69.1 °F 61.0 °F 75% 29.74 in 10.0 mi NW 5.8 mph - N/A   Overcast
4:54 PM 69.1 °F 61.0 °F 75% 29.74 in 10.0 mi Calm Calm - N/A   Overcast
5:54 PM 69.1 °F 61.0 °F 75% 29.74 in 10.0 mi Calm Calm - N/A   Overcast
6:54 PM 69.1 °F 62.1 °F 78% 29.75 in 10.0 mi Calm Calm - N/A   Overcast
7:54 PM 68.0 °F 62.1 °F 81% 29.77 in 10.0 mi Calm Calm - N/A   Overcast
8:31 PM 64.9 °F 62.1 °F 90% 29.78 in 10.0 mi Calm Calm - N/A   Mostly Cloudy
8:54 PM 66.0 °F 62.1 °F 87% 29.78 in 10.0 mi Calm Calm - N/A   Overcast
9:54 PM 66.0 °F 62.1 °F 87% 29.79 in 10.0 mi Calm Calm - N/A   Overcast
10:54 PM 64.0 °F 62.1 °F 93% 29.79 in 9.0 mi Calm Calm - N/A   Overcast
11:54 PM 61.0 °F 61.0 °F 100% 29.80 in 8.0 mi Calm Calm - N/A   Clear